UAE47 OMDB-EDDF

Flight info

Callsign UAE47
Flight time N/A
Altitude 34000
Route OMDB/30L N0499F340 RIDA2F RIDAP M557 TUMAK L602 ITNAS/N0493F360 L602 GADSI M860 SEPTU DCT VUSEB M860 NINVA UM860 ODALI UL852 NEGEM DCT MAXOV DCT IRLOX/N0475F380 DCT BALUX DCT TEKNO DCT ABETI DCT TAGAS DCT SUBEN DCT AKINI T161 DEBHI DEBH1A EDDF/25R
Aircraft B77W/H-SDE1E2E3FGHIJ2J3J4J5M1RWXY/L

Departure

Time 2026-05-05 10:50
Airport Dubai International Airport (OMDB)

Arrival

Time N/A
Airport Frankfurt Main Airport (EDDF)
Time Latitude Longitude Altitude Speed Heading
2026-05-05 10:26 25.24309 55.37444 49 ft 0 kts 212°
2026-05-05 10:39 25.24311 55.37445 49 ft 2 kts 212°
2026-05-05 10:39 25.24319 55.37451 49 ft 2 kts 211°
2026-05-05 10:40 25.24333 55.37459 49 ft 2 kts 200°
2026-05-05 10:40 25.24347 55.37463 50 ft 2 kts 189°
2026-05-05 10:40 25.24362 55.37465 51 ft 2 kts 179°
2026-05-05 10:40 25.24377 55.37463 51 ft 2 kts 169°
2026-05-05 10:41 25.24392 55.37459 52 ft 2 kts 159°
2026-05-05 10:41 25.24406 55.37452 53 ft 2 kts 148°
2026-05-05 10:41 25.24418 55.37442 53 ft 2 kts 138°
2026-05-05 10:41 25.24429 55.37431 54 ft 2 kts 128°
2026-05-05 10:42 25.24436 55.37420 54 ft 0 kts 121°
2026-05-05 10:43 25.24419 55.37450 53 ft 12 kts 121°
2026-05-05 10:44 25.24369 55.37540 50 ft 9 kts 122°
2026-05-05 10:44 25.24332 55.37605 49 ft 10 kts 121°
2026-05-05 10:44 25.24304 55.37655 49 ft 4 kts 121°
2026-05-05 10:44 25.24288 55.37683 49 ft 5 kts 121°
2026-05-05 10:45 25.24248 55.37758 51 ft 15 kts 121°
2026-05-05 10:45 25.24196 55.37853 54 ft 12 kts 121°
2026-05-05 10:45 25.24153 55.37930 56 ft 11 kts 121°
2026-05-05 10:45 25.24109 55.38006 59 ft 12 kts 123°
2026-05-05 10:46 25.24125 55.38083 60 ft 10 kts 41°
2026-05-05 10:46 25.24140 55.38140 61 ft 7 kts 120°
2026-05-05 10:46 25.24114 55.38186 61 ft 7 kts 121°
2026-05-05 10:46 25.24080 55.38247 61 ft 11 kts 121°
2026-05-05 10:47 25.24021 55.38352 61 ft 20 kts 121°
2026-05-05 10:47 25.23940 55.38501 62 ft 23 kts 121°
2026-05-05 10:47 25.23860 55.38646 62 ft 21 kts 121°
2026-05-05 10:47 25.23785 55.38777 62 ft 18 kts 120°
2026-05-05 10:48 25.23723 55.38893 63 ft 16 kts 120°
2026-05-05 10:48 25.23671 55.38992 65 ft 13 kts 113°
2026-05-05 10:48 25.23701 55.39062 64 ft 11 kts
2026-05-05 10:48 25.23774 55.39031 63 ft 11 kts 333°
2026-05-05 10:49 25.23844 55.38991 62 ft 11 kts 327°
2026-05-05 10:49 25.23916 55.38898 62 ft 30 kts 302°
2026-05-05 10:49 25.24173 55.38438 62 ft 108 kts 301°
2026-05-05 10:49 25.24691 55.37502 114 ft 169 kts 302°
2026-05-05 10:50 25.25325 55.36328 662 ft 186 kts 302°
2026-05-05 10:50 25.26070 55.35087 1333 ft 203 kts 305°
2026-05-05 10:50 25.26916 55.33726 1727 ft 224 kts 305°
2026-05-05 10:50 25.27828 55.32257 2243 ft 241 kts 305°
2026-05-05 10:51 25.28804 55.30683 2810 ft 256 kts 305°
2026-05-05 10:51 25.29850 55.28991 3396 ft 273 kts 305°
2026-05-05 10:51 25.30951 55.27258 4155 ft 280 kts 306°
2026-05-05 10:51 25.32082 55.25493 5052 ft 283 kts 306°
2026-05-05 10:52 25.33217 55.23713 5944 ft 285 kts 306°
2026-05-05 10:52 25.34346 55.21938 6814 ft 287 kts 306°
2026-05-05 10:52 25.35401 55.20039 7590 ft 293 kts 291°
2026-05-05 10:52 25.35778 55.17827 8324 ft 299 kts 271°
2026-05-05 10:53 25.35751 55.15538 9187 ft 301 kts 268°
2026-05-05 10:53 25.35659 55.13221 10068 ft 305 kts 268°
2026-05-05 10:53 25.35564 55.10799 10645 ft 319 kts 268°
2026-05-05 10:53 25.35471 55.08292 11174 ft 334 kts 268°
2026-05-05 10:54 25.35376 55.05668 11744 ft 349 kts 268°
2026-05-05 10:54 25.35278 55.02959 12310 ft 362 kts 268°
2026-05-05 10:54 25.35175 55.00104 12868 ft 375 kts 268°
2026-05-05 10:54 25.35069 54.97203 13416 ft 388 kts 268°
2026-05-05 10:55 25.34958 54.94166 13967 ft 401 kts 268°
2026-05-05 10:55 25.35051 54.91083 14661 ft 407 kts 278°
2026-05-05 10:55 25.35654 54.88029 15458 ft 410 kts 287°
2026-05-05 10:55 25.36499 54.85014 16281 ft 412 kts 288°
2026-05-05 10:56 25.37371 54.81970 17060 ft 416 kts 288°
2026-05-05 10:56 25.38258 54.78874 17800 ft 421 kts 288°
2026-05-05 10:56 25.39147 54.75767 18574 ft 424 kts 288°
2026-05-05 10:56 25.40037 54.72655 19311 ft 428 kts 288°
2026-05-05 10:57 25.40924 54.69545 20046 ft 431 kts 288°
2026-05-05 10:57 25.41827 54.66377 20766 ft 434 kts 288°
2026-05-05 10:57 25.42747 54.63146 21472 ft 437 kts 288°
2026-05-05 10:57 25.43669 54.59931 22135 ft 441 kts 288°
2026-05-05 10:58 25.44621 54.56720 22808 ft 444 kts 288°
2026-05-05 10:58 25.45582 54.53484 23505 ft 445 kts 288°
2026-05-05 10:58 25.46545 54.50235 24136 ft 448 kts 288°
2026-05-05 10:58 25.47515 54.46960 24747 ft 451 kts 287°
2026-05-05 10:59 25.48490 54.43660 25364 ft 453 kts 287°
2026-05-05 10:59 25.49469 54.40345 25962 ft 456 kts 287°
2026-05-05 10:59 25.50462 54.36974 26558 ft 459 kts 287°
2026-05-05 10:59 25.51447 54.33631 27150 ft 461 kts 286°
2026-05-05 11:00 25.52441 54.30253 27775 ft 462 kts 286°
2026-05-05 11:00 25.53443 54.26841 28368 ft 464 kts 286°
2026-05-05 11:00 25.54442 54.23438 28914 ft 467 kts 286°
2026-05-05 11:00 25.55442 54.20031 29567 ft 467 kts 286°
2026-05-05 11:01 25.56436 54.16647 30380 ft 463 kts 285°
2026-05-05 11:01 25.57419 54.13295 31280 ft 456 kts 285°
2026-05-05 11:01 25.58391 54.09977 32076 ft 451 kts 285°
2026-05-05 11:01 25.59349 54.06706 32698 ft 449 kts 285°
2026-05-05 11:02 25.60294 54.03420 33332 ft 448 kts 284°
2026-05-05 11:02 25.61231 54.00131 33745 ft 450 kts 284°
2026-05-05 11:02 25.62171 53.96828 33755 ft 449 kts 284°
2026-05-05 11:03 25.64053 53.90212 33750 ft 446 kts 284°
2026-05-05 11:03 25.65909 53.83681 33744 ft 446 kts 284°
2026-05-05 11:04 25.67769 53.77125 33741 ft 447 kts 284°
2026-05-05 11:04 25.69628 53.70553 33740 ft 446 kts 284°
2026-05-05 11:05 25.71471 53.63998 33740 ft 446 kts 284°
2026-05-05 11:05 25.73315 53.57426 33740 ft 446 kts 284°
2026-05-05 11:06 25.75149 53.50883 33739 ft 445 kts 284°
2026-05-05 11:06 25.76986 53.44336 33737 ft 446 kts 284°
2026-05-05 11:07 25.78830 53.37761 33736 ft 446 kts 284°
2026-05-05 11:07 25.80684 53.31137 33749 ft 446 kts 284°
2026-05-05 11:08 25.82534 53.24511 33749 ft 446 kts 284°
2026-05-05 11:08 25.84436 53.18013 33747 ft 447 kts 289°
2026-05-05 11:09 25.86995 53.11653 33747 ft 450 kts 290°
2026-05-05 11:09 25.89572 53.05336 33746 ft 447 kts 290°
2026-05-05 11:10 25.92125 52.99062 33746 ft 447 kts 290°
2026-05-05 11:10 25.94673 52.92787 33745 ft 447 kts 290°
2026-05-05 11:11 25.97238 52.86459 33747 ft 447 kts 290°
2026-05-05 11:11 25.99773 52.80194 33746 ft 447 kts 290°
2026-05-05 11:12 26.02332 52.73872 33747 ft 446 kts 291°
2026-05-05 11:12 26.05117 52.67690 33748 ft 447 kts 292°
2026-05-05 11:13 26.07916 52.61516 33750 ft 449 kts 292°
2026-05-05 11:13 26.10708 52.55330 33746 ft 447 kts 292°
2026-05-05 11:14 26.13497 52.49148 33745 ft 448 kts 292°
2026-05-05 11:14 26.16289 52.42963 33747 ft 448 kts 292°
2026-05-05 11:15 26.19085 52.36755 33742 ft 448 kts 292°
2026-05-05 11:15 26.21875 52.30550 33752 ft 448 kts 291°
2026-05-05 11:16 26.24609 52.24276 33751 ft 446 kts 290°
2026-05-05 11:16 26.27338 52.17959 33747 ft 445 kts 290°
2026-05-05 11:17 26.30037 52.11706 33744 ft 444 kts 290°
2026-05-05 11:17 26.32762 52.05391 33745 ft 446 kts 290°
2026-05-05 11:18 26.35459 51.99149 33741 ft 444 kts 290°
2026-05-05 11:18 26.38045 51.92818 33750 ft 441 kts 286°
2026-05-05 11:19 26.40226 51.86338 33743 ft 441 kts 286°
2026-05-05 11:19 26.42402 51.79845 33744 ft 442 kts 286°
2026-05-05 11:20 26.44546 51.73446 33741 ft 439 kts 285°
2026-05-05 11:20 26.46708 51.66982 33738 ft 439 kts 285°
2026-05-05 11:21 26.48872 51.60500 33746 ft 440 kts 285°
2026-05-05 11:21 26.51008 51.54084 33745 ft 437 kts 285°
2026-05-05 11:22 26.53151 51.47630 33752 ft 439 kts 285°
2026-05-05 11:22 26.55282 51.41210 33758 ft 437 kts 285°
2026-05-05 11:23 26.57415 51.34769 33757 ft 437 kts 285°
2026-05-05 11:23 26.59533 51.28362 33778 ft 437 kts 285°
2026-05-05 11:24 26.61657 51.21955 33765 ft 435 kts 285°
2026-05-05 11:24 26.63776 51.15551 33768 ft 434 kts 285°
2026-05-05 11:25 26.65886 51.09161 33760 ft 434 kts 285°
2026-05-05 11:25 26.67977 51.02818 33746 ft 433 kts 285°
2026-05-05 11:26 26.70035 50.96470 33743 ft 433 kts 284°
2026-05-05 11:26 26.72075 50.90086 33746 ft 433 kts 284°
2026-05-05 11:27 26.74114 50.83700 33745 ft 432 kts 284°
2026-05-05 11:27 26.76139 50.77352 33742 ft 430 kts 284°
2026-05-05 11:28 26.78180 50.70941 33741 ft 432 kts 284°
2026-05-05 11:28 26.80650 50.64711 33741 ft 438 kts 295°
2026-05-05 11:29 26.84395 50.59161 33742 ft 447 kts 302°
2026-05-05 11:29 26.88404 50.53686 33741 ft 448 kts 302°
2026-05-05 11:30 26.92345 50.48296 33735 ft 446 kts 303°
2026-05-05 11:30 26.96761 50.43031 33739 ft 454 kts 306°
2026-05-05 11:31 27.01116 50.37919 33737 ft 448 kts 306°
2026-05-05 11:31 27.05484 50.32749 33757 ft 449 kts 305°
2026-05-05 11:32 27.09731 50.27641 33767 ft 448 kts 305°
2026-05-05 11:32 27.14004 50.22481 33767 ft 448 kts 305°
2026-05-05 11:33 27.18795 50.17711 33767 ft 458 kts 315°
2026-05-05 11:33 27.23960 50.13458 33761 ft 459 kts 315°
2026-05-05 11:34 27.29140 50.09190 33754 ft 459 kts 315°
2026-05-05 11:34 27.34283 50.04943 33744 ft 458 kts 315°
2026-05-05 11:35 27.39356 50.00626 33743 ft 457 kts 313°
2026-05-05 11:35 27.44372 49.96198 33742 ft 453 kts 313°
2026-05-05 11:36 27.49360 49.91795 33741 ft 455 kts 313°
2026-05-05 11:36 27.54341 49.87399 33740 ft 455 kts 313°
2026-05-05 11:37 27.59316 49.83010 33737 ft 452 kts 313°
2026-05-05 11:37 27.64259 49.78642 33736 ft 453 kts 313°
2026-05-05 11:38 27.69238 49.74238 33730 ft 453 kts 313°
2026-05-05 11:38 27.74184 49.69861 33731 ft 452 kts 313°
2026-05-05 11:39 27.79177 49.65432 33729 ft 454 kts 313°
2026-05-05 11:39 27.84135 49.61008 33728 ft 453 kts 312°
2026-05-05 11:40 27.89083 49.56588 33728 ft 450 kts 313°
2026-05-05 11:40 27.93999 49.52189 33725 ft 452 kts 313°
2026-05-05 11:41 27.98905 49.47798 33724 ft 449 kts 313°
2026-05-05 11:41 28.03831 49.43376 33723 ft 449 kts 312°
2026-05-05 11:42 28.08687 49.38946 33723 ft 450 kts 312°
2026-05-05 11:42 28.13581 49.34477 33725 ft 446 kts 311°
2026-05-05 11:43 28.18438 49.30034 33741 ft 451 kts 311°
2026-05-05 11:43 28.23289 49.25598 33750 ft 447 kts 311°
2026-05-05 11:44 28.28158 49.21135 33746 ft 450 kts 311°
2026-05-05 11:44 28.33011 49.16687 33748 ft 447 kts 311°
2026-05-05 11:45 28.37891 49.12205 33745 ft 451 kts 311°
2026-05-05 11:45 28.42920 49.07908 33753 ft 453 kts 316°
2026-05-05 11:46 28.48203 49.03941 33746 ft 459 kts 316°
2026-05-05 11:46 28.53532 48.99905 33753 ft 455 kts 316°
2026-05-05 11:47 28.58820 48.95868 33740 ft 456 kts 316°
2026-05-05 11:47 28.64072 48.91842 33731 ft 457 kts 316°
2026-05-05 11:48 28.71956 48.85781 33738 ft 455 kts 316°
2026-05-05 11:48 28.77232 48.81712 33736 ft 455 kts 316°
2026-05-05 11:49 28.82461 48.77683 33732 ft 457 kts 316°
2026-05-05 11:49 28.87738 48.73647 33726 ft 454 kts 316°
2026-05-05 11:50 28.93000 48.69614 33729 ft 455 kts 316°
2026-05-05 11:50 28.98296 48.65548 33726 ft 457 kts 316°
2026-05-05 11:51 29.03561 48.61504 33716 ft 453 kts 316°
2026-05-05 11:51 29.08871 48.57415 33713 ft 456 kts 316°
2026-05-05 11:52 29.14206 48.53302 33705 ft 459 kts 316°
2026-05-05 11:52 29.19560 48.49174 33703 ft 457 kts 316°
2026-05-05 11:53 29.24918 48.45033 33702 ft 458 kts 316°
2026-05-05 11:53 29.30329 48.40847 33701 ft 458 kts 317°
2026-05-05 11:54 29.35654 48.36723 33700 ft 458 kts 316°
2026-05-05 11:54 29.41078 48.32515 33728 ft 459 kts 316°
2026-05-05 11:55 29.46510 48.28487 33752 ft 463 kts 320°
2026-05-05 11:55 29.51407 48.25326 33735 ft 463 kts 321°
2026-05-05 11:56 29.55723 48.22524 33736 ft 463 kts 321°
2026-05-05 11:56 29.61393 48.18817 33738 ft 464 kts 320°
2026-05-05 11:57 29.67130 48.15048 33734 ft 463 kts 320°
2026-05-05 11:57 29.72815 48.11299 33731 ft 467 kts 321°
2026-05-05 11:58 29.78468 48.07567 33712 ft 464 kts 320°
2026-05-05 11:58 29.84181 48.03784 33716 ft 466 kts 321°
2026-05-05 11:59 29.89831 48.00038 33705 ft 466 kts 320°
2026-05-05 11:59 29.95505 47.96271 33719 ft 467 kts 320°
2026-05-05 12:00 30.01136 47.92310 33709 ft 460 kts 314°
2026-05-05 12:00 30.03600 47.89838 33702 ft 449 kts 306°
2026-05-05 12:00 30.05695 47.87170 33724 ft 446 kts 303°
2026-05-05 12:01 30.09785 47.81729 33723 ft 443 kts 303°
2026-05-05 12:01 30.13866 47.76281 33710 ft 447 kts 303°
2026-05-05 12:02 30.17995 47.70767 33711 ft 443 kts 303°
2026-05-05 12:02 30.22096 47.65276 33728 ft 447 kts 302°
2026-05-05 12:03 30.26204 47.59773 33731 ft 442 kts 302°
2026-05-05 12:03 30.30287 47.54291 33745 ft 446 kts 302°
2026-05-05 12:04 30.34394 47.48774 33742 ft 443 kts 302°
2026-05-05 12:04 30.38451 47.43312 33747 ft 443 kts 302°
2026-05-05 12:05 30.42504 47.37851 33737 ft 443 kts 302°
2026-05-05 12:05 30.46596 47.32327 33760 ft 443 kts 302°
2026-05-05 12:06 30.50634 47.26871 33766 ft 442 kts 302°
2026-05-05 12:06 30.54697 47.21370 33754 ft 444 kts 302°
2026-05-05 12:07 30.59211 47.16315 33758 ft 455 kts 312°
2026-05-05 12:07 30.64198 47.11676 33748 ft 456 kts 312°
2026-05-05 12:08 30.69211 47.07005 33749 ft 459 kts 312°
2026-05-05 12:08 30.74215 47.02332 33746 ft 460 kts 312°
2026-05-05 12:09 30.79226 46.97644 33747 ft 455 kts 312°
2026-05-05 12:09 30.84221 46.92960 33766 ft 457 kts 312°
2026-05-05 12:10 30.89187 46.88296 33757 ft 458 kts 312°
2026-05-05 12:10 30.94212 46.83571 33751 ft 457 kts 312°
2026-05-05 12:11 30.99199 46.78873 33760 ft 458 kts 312°
2026-05-05 12:11 31.04205 46.74154 33754 ft 456 kts 312°
2026-05-05 12:12 31.09257 46.69381 33750 ft 457 kts 312°
2026-05-05 12:12 31.14230 46.64679 33748 ft 458 kts 312°
2026-05-05 12:13 31.19288 46.59889 33756 ft 457 kts 311°
2026-05-05 12:13 31.24273 46.55161 33760 ft 456 kts 311°
2026-05-05 12:14 31.29242 46.50440 33770 ft 458 kts 311°
2026-05-05 12:14 31.34289 46.45642 33766 ft 455 kts 311°
2026-05-05 12:15 31.39229 46.40935 33763 ft 457 kts 311°
2026-05-05 12:15 31.44197 46.36197 33765 ft 456 kts 311°
2026-05-05 12:16 31.49142 46.31473 33788 ft 456 kts 311°
2026-05-05 12:16 31.54083 46.26748 33786 ft 455 kts 311°
2026-05-05 12:17 31.59019 46.22019 33790 ft 458 kts 311°
2026-05-05 12:17 31.63987 46.17256 33791 ft 454 kts 311°
2026-05-05 12:18 31.68877 46.12556 33784 ft 457 kts 311°
2026-05-05 12:18 31.73812 46.07811 33787 ft 454 kts 311°
2026-05-05 12:19 31.78687 46.03040 33787 ft 453 kts 310°
2026-05-05 12:19 31.83500 45.98261 33792 ft 451 kts 310°
2026-05-05 12:20 31.88323 45.93468 33799 ft 452 kts 310°
2026-05-05 12:20 31.93164 45.88654 33799 ft 452 kts 310°
2026-05-05 12:21 31.97959 45.83880 33798 ft 453 kts 310°
2026-05-05 12:21 32.02816 45.79037 33806 ft 455 kts 310°
2026-05-05 12:22 32.07668 45.74196 33810 ft 452 kts 310°
2026-05-05 12:22 32.12501 45.69364 33802 ft 453 kts 310°
2026-05-05 12:23 32.17346 45.64514 33784 ft 455 kts 310°
2026-05-05 12:23 32.22285 45.59565 33797 ft 455 kts 310°
2026-05-05 12:24 32.27172 45.54659 33803 ft 454 kts 310°
2026-05-05 12:24 32.32096 45.49709 33803 ft 454 kts 310°
2026-05-05 12:25 32.37030 45.44741 33810 ft 454 kts 309°
2026-05-05 12:25 32.41954 45.39775 33807 ft 456 kts 309°
2026-05-05 12:26 32.46827 45.34856 33797 ft 454 kts 309°
2026-05-05 12:26 32.51750 45.29875 33833 ft 456 kts 309°
2026-05-05 12:27 32.55940 45.25806 33832 ft 462 kts 314°
2026-05-05 12:27 32.61488 45.21388 33834 ft 468 kts 315°
2026-05-05 12:28 32.66935 45.17083 33840 ft 467 kts 315°
2026-05-05 12:28 32.72468 45.12698 33841 ft 464 kts 315°
2026-05-05 12:29 32.77881 45.08392 33842 ft 469 kts 315°
2026-05-05 12:29 32.83358 45.04033 33839 ft 468 kts 315°
2026-05-05 12:30 32.88902 44.99611 33841 ft 467 kts 315°
2026-05-05 12:30 32.94391 44.95225 33844 ft 469 kts 315°
2026-05-05 12:31 32.99899 44.90818 33830 ft 468 kts 315°
2026-05-05 12:31 33.05372 44.86431 33842 ft 471 kts 315°
2026-05-05 12:32 33.10763 44.82105 33837 ft 469 kts 315°
2026-05-05 12:32 33.16168 44.77759 33822 ft 471 kts 314°
2026-05-05 12:33 33.21907 44.73644 33818 ft 489 kts 325°
2026-05-05 12:33 33.25185 44.72252 33821 ft 505 kts 334°
2026-05-05 12:33 33.28715 44.71182 33830 ft 506 kts 335°
2026-05-05 12:34 33.35672 44.69167 33826 ft 507 kts 335°
2026-05-05 12:34 33.42613 44.67140 33828 ft 509 kts 335°
2026-05-05 12:35 33.49625 44.65081 33829 ft 507 kts 335°
2026-05-05 12:35 33.56586 44.63028 33829 ft 508 kts 335°
2026-05-05 12:36 33.63608 44.60950 33828 ft 508 kts 335°
2026-05-05 12:36 33.70563 44.58884 33830 ft 512 kts 335°
2026-05-05 12:37 33.77579 44.56801 33836 ft 511 kts 335°
2026-05-05 12:37 33.84564 44.54721 33838 ft 511 kts 335°
2026-05-05 12:38 33.91592 44.52622 33838 ft 515 kts 335°
2026-05-05 12:38 33.98693 44.50502 33837 ft 512 kts 335°
2026-05-05 12:39 34.05691 44.48407 33846 ft 515 kts 335°
2026-05-05 12:39 34.12852 44.46258 33826 ft 515 kts 335°
2026-05-05 12:40 34.19951 44.44127 33833 ft 515 kts 335°
2026-05-05 12:40 34.27106 44.41973 33828 ft 515 kts 335°
2026-05-05 12:41 34.34106 44.39862 33831 ft 517 kts 335°
2026-05-05 12:41 34.41225 44.37714 33833 ft 514 kts 335°
2026-05-05 12:42 34.48244 44.35588 33834 ft 518 kts 335°
2026-05-05 12:42 34.55369 44.33430 33854 ft 516 kts 335°
2026-05-05 12:43 34.62425 44.31288 33855 ft 516 kts 335°
2026-05-05 12:43 34.69526 44.29127 33853 ft 518 kts 335°
2026-05-05 12:44 34.75947 44.27171 33857 ft 519 kts 335°
2026-05-05 12:44 34.83046 44.25003 33852 ft 523 kts 335°
2026-05-05 12:45 34.90216 44.22814 33854 ft 521 kts 335°
2026-05-05 12:45 34.97372 44.20621 33860 ft 522 kts 335°
2026-05-05 12:46 35.04493 44.18438 33857 ft 521 kts 335°
2026-05-05 12:46 35.11613 44.16249 33856 ft 520 kts 335°
2026-05-05 12:47 35.18793 44.14038 33852 ft 523 kts 335°
2026-05-05 12:47 35.25847 44.11863 33861 ft 519 kts 335°
2026-05-05 12:48 35.33025 44.09645 33859 ft 520 kts 335°
2026-05-05 12:48 35.40169 44.07431 33866 ft 522 kts 336°
2026-05-05 12:49 35.47430 44.05181 33873 ft 520 kts 336°
2026-05-05 12:49 35.54525 44.02976 33869 ft 519 kts 335°
2026-05-05 12:50 35.61691 44.00743 33873 ft 522 kts 336°
2026-05-05 12:50 35.68800 43.98528 33883 ft 520 kts 336°
2026-05-05 12:51 35.75885 43.96313 33881 ft 521 kts 336°
2026-05-05 12:51 35.83068 43.94064 33876 ft 521 kts 336°
2026-05-05 12:52 35.90213 43.91824 33886 ft 520 kts 336°
2026-05-05 12:52 35.97419 43.89560 33878 ft 521 kts 336°
2026-05-05 12:53 36.04672 43.87274 33880 ft 524 kts 336°
2026-05-05 12:53 36.11789 43.85030 33863 ft 525 kts 337°
2026-05-05 12:54 36.22498 43.81646 33870 ft 523 kts 337°
2026-05-05 12:55 36.29538 43.79029 33878 ft 515 kts 328°
2026-05-05 12:55 36.36185 43.75614 33869 ft 513 kts 328°
2026-05-05 12:56 36.42828 43.72168 33872 ft 513 kts 328°
2026-05-05 12:56 36.49487 43.68707 33867 ft 513 kts 328°
2026-05-05 12:57 36.56058 43.65287 33871 ft 511 kts 328°
2026-05-05 12:57 36.62681 43.61832 33880 ft 514 kts 328°
2026-05-05 12:58 36.69277 43.58387 33896 ft 515 kts 328°
2026-05-05 12:58 36.75950 43.54885 33893 ft 515 kts 327°
2026-05-05 12:59 36.82512 43.51226 33915 ft 511 kts 327°
2026-05-05 12:59 36.89029 43.47568 33933 ft 513 kts 327°
2026-05-05 13:00 36.98849 43.42058 33941 ft 510 kts 327°
2026-05-05 13:01 37.10829 43.35319 33949 ft 513 kts 328°
2026-05-05 13:01 37.17307 43.31672 33958 ft 511 kts 327°
2026-05-05 13:02 37.23824 43.27991 33964 ft 511 kts 327°
2026-05-05 13:02 37.30213 43.24112 33969 ft 503 kts 319°
2026-05-05 13:03 37.33059 43.21533 33967 ft 492 kts 310°
2026-05-05 13:03 37.35477 43.18543 33962 ft 482 kts 301°
2026-05-05 13:03 37.37466 43.15187 33965 ft 469 kts 293°
2026-05-05 13:03 37.39100 43.11656 33976 ft 464 kts 290°
2026-05-05 13:04 37.42209 43.04573 33968 ft 464 kts 290°
2026-05-05 13:04 37.45301 42.97409 33969 ft 466 kts 290°
2026-05-05 13:05 37.48389 42.90192 33979 ft 464 kts 290°
2026-05-05 13:05 37.51426 42.83048 33969 ft 466 kts 290°
2026-05-05 13:06 37.54474 42.75853 33977 ft 463 kts 290°
2026-05-05 13:06 37.57523 42.68631 33970 ft 466 kts 290°
2026-05-05 13:07 37.60576 42.61386 33968 ft 465 kts 290°
2026-05-05 13:07 37.63619 42.54159 33956 ft 467 kts 291°
2026-05-05 13:08 37.66657 42.46928 33949 ft 466 kts 291°
2026-05-05 13:08 37.69700 42.39665 33949 ft 467 kts 291°
2026-05-05 13:09 37.72727 42.32426 33948 ft 465 kts 290°
2026-05-05 13:09 37.75769 42.25131 33944 ft 467 kts 291°
2026-05-05 13:10 37.78787 42.17879 33944 ft 467 kts 291°
2026-05-05 13:10 37.81802 42.10619 33935 ft 465 kts 291°
2026-05-05 13:11 37.84818 42.03334 33920 ft 467 kts 291°
2026-05-05 13:11 37.87827 41.96055 33920 ft 468 kts 291°
2026-05-05 13:12 37.90951 41.88779 33895 ft 471 kts 297°
2026-05-05 13:12 37.95180 41.82241 33898 ft 480 kts 305°
2026-05-05 13:13 37.99634 41.75872 33897 ft 481 kts 306°
2026-05-05 13:13 38.04064 41.69516 33891 ft 482 kts 306°
2026-05-05 13:14 38.08498 41.63135 33912 ft 480 kts 306°
2026-05-05 13:14 38.12965 41.56686 33905 ft 482 kts 306°
2026-05-05 13:15 38.17403 41.50267 33907 ft 481 kts 306°
2026-05-05 13:15 38.21848 41.43822 33918 ft 480 kts 306°
2026-05-05 13:16 38.26266 41.37403 33916 ft 483 kts 306°
2026-05-05 13:16 38.30674 41.30985 33932 ft 481 kts 306°
2026-05-05 13:17 38.35106 41.24519 33923 ft 483 kts 306°
2026-05-05 13:17 38.39536 41.18043 33926 ft 483 kts 306°
2026-05-05 13:18 38.43959 41.11563 33928 ft 483 kts 306°
2026-05-05 13:18 38.48378 41.05017 33938 ft 484 kts 305°
2026-05-05 13:19 38.52685 40.98422 33935 ft 481 kts 305°
2026-05-05 13:19 38.57000 40.91804 33937 ft 483 kts 305°
2026-05-05 13:20 38.61294 40.85213 33925 ft 482 kts 305°
2026-05-05 13:20 38.65651 40.78566 33931 ft 483 kts 306°
2026-05-05 13:21 38.69987 40.72023 33930 ft 484 kts 306°
2026-05-05 13:21 38.74361 40.65409 33931 ft 484 kts 306°
2026-05-05 13:22 38.78703 40.58827 33930 ft 483 kts 306°
2026-05-05 13:22 38.83057 40.52211 33923 ft 483 kts 307°
2026-05-05 13:23 38.87425 40.45559 33938 ft 485 kts 307°
2026-05-05 13:23 38.91767 40.38932 33917 ft 486 kts 306°
2026-05-05 13:24 38.96144 40.32238 33909 ft 485 kts 306°
2026-05-05 13:24 39.00503 40.25558 33906 ft 485 kts 306°
2026-05-05 13:25 39.04845 40.18888 33896 ft 485 kts 306°
2026-05-05 13:25 39.09203 40.12180 33906 ft 486 kts 306°
2026-05-05 13:26 39.13538 40.05495 33916 ft 484 kts 306°
2026-05-05 13:26 39.17852 39.98826 33899 ft 484 kts 306°
2026-05-05 13:27 39.22198 39.92091 33907 ft 486 kts 306°
2026-05-05 13:27 39.26551 39.85326 33916 ft 487 kts 306°
2026-05-05 13:28 39.30891 39.78569 33920 ft 487 kts 306°
2026-05-05 13:28 39.35215 39.71822 33918 ft 486 kts 306°
2026-05-05 13:29 39.39537 39.65064 33899 ft 486 kts 306°
2026-05-05 13:29 39.43862 39.58286 33889 ft 487 kts 306°
2026-05-05 13:30 39.48195 39.51480 33886 ft 486 kts 306°
2026-05-05 13:30 39.52511 39.44672 33908 ft 487 kts 306°
2026-05-05 13:31 39.56762 39.37826 33906 ft 487 kts 306°
2026-05-05 13:31 39.61055 39.30897 33917 ft 487 kts 305°
2026-05-05 13:32 39.65308 39.24020 33912 ft 487 kts 305°
2026-05-05 13:32 39.69556 39.17138 33899 ft 488 kts 305°
2026-05-05 13:33 39.73806 39.10259 33916 ft 489 kts 306°
2026-05-05 13:33 39.78139 39.03363 33931 ft 489 kts 306°
2026-05-05 13:34 39.82470 38.96455 33936 ft 488 kts 306°
2026-05-05 13:34 39.86731 38.89642 33936 ft 487 kts 306°
2026-05-05 13:35 39.91028 38.82753 33935 ft 487 kts 306°
2026-05-05 13:35 39.95323 38.75851 33946 ft 488 kts 306°
2026-05-05 13:36 39.99622 38.68928 33951 ft 488 kts 306°
2026-05-05 13:36 40.03899 38.62024 33943 ft 489 kts 306°
2026-05-05 13:37 40.08182 38.55094 33948 ft 488 kts 306°
2026-05-05 13:37 40.12450 38.48173 33943 ft 488 kts 307°
2026-05-05 13:38 40.16725 38.41226 33956 ft 488 kts 306°
2026-05-05 13:38 40.20982 38.34294 33953 ft 488 kts 306°
2026-05-05 13:39 40.25257 38.27314 33945 ft 488 kts 306°
2026-05-05 13:39 40.29504 38.20367 33948 ft 489 kts 306°
2026-05-05 13:40 40.33246 38.13039 33950 ft 485 kts 292°
2026-05-05 13:40 40.35829 38.04836 33943 ft 484 kts 289°
2026-05-05 13:41 40.38303 37.96647 33939 ft 482 kts 289°
2026-05-05 13:41 40.40763 37.88464 33934 ft 482 kts 289°
2026-05-05 13:42 40.43236 37.80206 33938 ft 483 kts 289°
2026-05-05 13:42 40.45678 37.72023 33947 ft 483 kts 290°
2026-05-05 13:43 40.47138 37.67117 33947 ft 483 kts 290°